﻿測定場所 (Monitoring sites),日付 (Measurement date),時間 (Measurement time),線量率 最大値 (max) μGy/h,線量率 最小値 (min) μGy/h,線量率 平均値 (average) μGy/h,
大田 (Ota),2012-04-15,23:01～24:00,0.0622,0.0551,0.0574,
大田 (Ota),2012-04-15,22:01～23:00,0.0602,0.0535,0.0572,
大田 (Ota),2012-04-15,21:01～22:00,0.0612,0.0535,0.0572,
大田 (Ota),2012-04-15,20:01～21:00,0.0599,0.0536,0.0568,
大田 (Ota),2012-04-15,19:01～20:00,0.0604,0.0535,0.0568,
大田 (Ota),2012-04-15,18:01～19:00,0.0608,0.0540,0.0573,
大田 (Ota),2012-04-15,17:01～18:00,0.0611,0.0540,0.0574,
大田 (Ota),2012-04-15,16:01～17:00,0.0601,0.0540,0.0572,
大田 (Ota),2012-04-15,15:01～16:00,0.0605,0.0531,0.0571,
大田 (Ota),2012-04-15,14:01～15:00,0.0605,0.0545,0.0573,
大田 (Ota),2012-04-15,13:01～14:00,0.0618,0.0533,0.0577,
大田 (Ota),2012-04-15,12:01～13:00,0.0620,0.0543,0.0576,
大田 (Ota),2012-04-15,11:01～12:00,0.0608,0.0533,0.0575,
大田 (Ota),2012-04-15,10:01～11:00,0.0621,0.0532,0.0578,
大田 (Ota),2012-04-15,09:01～10:00,0.0621,0.0560,0.0585,
大田 (Ota),2012-04-15,08:01～09:00,0.0609,0.0546,0.0575,
大田 (Ota),2012-04-15,07:01～08:00,0.0622,0.0542,0.0577,
大田 (Ota),2012-04-15,06:01～07:00,0.0607,0.0538,0.0576,
大田 (Ota),2012-04-15,05:01～06:00,0.0607,0.0544,0.0576,
大田 (Ota),2012-04-15,04:01～05:00,0.0605,0.0536,0.0567,
大田 (Ota),2012-04-15,03:01～04:00,0.0598,0.0540,0.0573,
大田 (Ota),2012-04-15,02:01～03:00,0.0601,0.0541,0.0574,
大田 (Ota),2012-04-15,01:01～02:00,0.0613,0.0537,0.0570,
大田 (Ota),2012-04-15,00:01～01:00,0.0597,0.0533,0.0568,
大田 (Ota),2012-04-14,23:01～24:00,0.0605,0.0531,0.0572,
大田 (Ota),2012-04-14,22:01～23:00,0.0627,0.0545,0.0580,
大田 (Ota),2012-04-14,21:01～22:00,0.0633,0.0556,0.0587,
大田 (Ota),2012-04-14,20:01～21:00,0.0644,0.0579,0.0611,
大田 (Ota),2012-04-14,19:01～20:00,0.0660,0.0591,0.0623,
大田 (Ota),2012-04-14,18:01～19:00,0.0677,0.0598,0.0640,
大田 (Ota),2012-04-14,17:01～18:00,0.0708,0.0618,0.0655,
大田 (Ota),2012-04-14,16:01～17:00,0.0702,0.0624,0.0667,
大田 (Ota),2012-04-14,15:01～16:00,0.0707,0.0646,0.0673,
大田 (Ota),2012-04-14,14:01～15:00,0.0731,0.0649,0.0690,
大田 (Ota),2012-04-14,13:01～14:00,0.0821,0.0673,0.0734,
大田 (Ota),2012-04-14,12:01～13:00,0.0817,0.0703,0.0747,
大田 (Ota),2012-04-14,11:01～12:00,0.0772,0.0680,0.0724,
大田 (Ota),2012-04-14,10:01～11:00,0.0827,0.0692,0.0743,
大田 (Ota),2012-04-14,09:01～10:00,0.0820,0.0702,0.0749,
大田 (Ota),2012-04-14,08:01～09:00,0.0795,0.0701,0.0739,
大田 (Ota),2012-04-14,07:01～08:00,0.0780,0.0690,0.0726,
大田 (Ota),2012-04-14,06:01～07:00,0.0818,0.0716,0.0766,
大田 (Ota),2012-04-14,05:01～06:00,0.0797,0.0667,0.0717,
大田 (Ota),2012-04-14,04:01～05:00,0.0806,0.0677,0.0727,
大田 (Ota),2012-04-14,03:01～04:00,0.0750,0.0623,0.0697,
大田 (Ota),2012-04-14,02:01～03:00,0.0696,0.0604,0.0647,
大田 (Ota),2012-04-14,01:01～02:00,0.0677,0.0594,0.0633,
大田 (Ota),2012-04-14,00:01～01:00,0.0642,0.0568,0.0608,
大田 (Ota),2012-04-13,23:01～24:00,0.0651,0.0585,0.0616,
大田 (Ota),2012-04-13,22:01～23:00,0.0685,0.0595,0.0636,
大田 (Ota),2012-04-13,21:01～22:00,0.0728,0.0634,0.0678,
大田 (Ota),2012-04-13,20:01～21:00,0.0711,0.0588,0.0656,
大田 (Ota),2012-04-13,19:01～20:00,0.0643,0.0552,0.0591,
大田 (Ota),2012-04-13,18:01～19:00,0.0615,0.0544,0.0572,
大田 (Ota),2012-04-13,17:01～18:00,0.0612,0.0542,0.0573,
大田 (Ota),2012-04-13,16:01～17:00,0.0633,0.0535,0.0574,
大田 (Ota),2012-04-13,15:01～16:00,0.0615,0.0547,0.0578,
大田 (Ota),2012-04-13,14:01～15:00,0.0617,0.0520,0.0574,
大田 (Ota),2012-04-13,13:01～14:00,0.0616,0.0541,0.0578,
大田 (Ota),2012-04-13,12:01～13:00,0.0617,0.0529,0.0579,
大田 (Ota),2012-04-13,11:01～12:00,0.0624,0.0531,0.0575,
大田 (Ota),2012-04-13,10:01～11:00,0.0616,0.0551,0.0578,
大田 (Ota),2012-04-13,09:01～10:00,0.0616,0.0531,0.0577,
大田 (Ota),2012-04-13,08:01～09:00,0.0617,0.0540,0.0578,
大田 (Ota),2012-04-13,07:01～08:00,0.0618,0.0531,0.0577,
大田 (Ota),2012-04-13,06:01～07:00,0.0617,0.0547,0.0576,
大田 (Ota),2012-04-13,05:01～06:00,0.0609,0.0551,0.0578,
大田 (Ota),2012-04-13,04:01～05:00,0.0623,0.0541,0.0581,
大田 (Ota),2012-04-13,03:01～04:00,0.0611,0.0542,0.0581,
大田 (Ota),2012-04-13,02:01～03:00,0.0625,0.0546,0.0583,
大田 (Ota),2012-04-13,01:01～02:00,0.0614,0.0551,0.0578,
大田 (Ota),2012-04-13,00:01～01:00,0.0616,0.0550,0.0583,
大田 (Ota),2012-04-12,23:01～24:00,0.0613,0.0535,0.0581,
大田 (Ota),2012-04-12,22:01～23:00,0.0622,0.0546,0.0578,
大田 (Ota),2012-04-12,21:01～22:00,0.0612,0.0545,0.0578,
大田 (Ota),2012-04-12,20:01～21:00,0.0602,0.0546,0.0576,
大田 (Ota),2012-04-12,19:01～20:00,0.0599,0.0544,0.0576,
大田 (Ota),2012-04-12,18:01～19:00,0.0604,0.0529,0.0572,
大田 (Ota),2012-04-12,17:01～18:00,0.0606,0.0541,0.0572,
大田 (Ota),2012-04-12,16:01～17:00,0.0619,0.0530,0.0573,
大田 (Ota),2012-04-12,15:01～16:00,0.0615,0.0540,0.0575,
大田 (Ota),2012-04-12,14:01～15:00,0.0607,0.0536,0.0576,
大田 (Ota),2012-04-12,13:01～14:00,0.0616,0.0550,0.0578,
大田 (Ota),2012-04-12,12:01～13:00,0.0618,0.0550,0.0579,
大田 (Ota),2012-04-12,11:01～12:00,0.0627,0.0534,0.0577,
大田 (Ota),2012-04-12,10:01～11:00,0.0623,0.0534,0.0581,
大田 (Ota),2012-04-12,09:01～10:00,0.0608,0.0535,0.0582,
大田 (Ota),2012-04-12,08:01～09:00,0.0617,0.0553,0.0582,
大田 (Ota),2012-04-12,07:01～08:00,0.0626,0.0555,0.0587,
大田 (Ota),2012-04-12,06:01～07:00,0.0618,0.0542,0.0578,
大田 (Ota),2012-04-12,05:01～06:00,0.0611,0.0537,0.0575,
大田 (Ota),2012-04-12,04:01～05:00,0.0615,0.0534,0.0576,
大田 (Ota),2012-04-12,03:01～04:00,0.0616,0.0539,0.0581,
大田 (Ota),2012-04-12,02:01～03:00,0.0614,0.0550,0.0581,
大田 (Ota),2012-04-12,01:01～02:00,0.0618,0.0547,0.0582,
大田 (Ota),2012-04-12,00:01～01:00,0.0633,0.0549,0.0590,
大田 (Ota),2012-04-11,23:01～24:00,0.0673,0.0574,0.0620,
大田 (Ota),2012-04-11,22:01～23:00,0.0673,0.0591,0.0633,
大田 (Ota),2012-04-11,21:01～22:00,0.0666,0.0592,0.0630,
大田 (Ota),2012-04-11,20:01～21:00,0.0668,0.0585,0.0620,
大田 (Ota),2012-04-11,19:01～20:00,0.0663,0.0582,0.0615,
大田 (Ota),2012-04-11,18:01～19:00,0.0639,0.0570,0.0604,
大田 (Ota),2012-04-11,17:01～18:00,0.0646,0.0584,0.0611,
大田 (Ota),2012-04-11,16:01～17:00,0.0646,0.0562,0.0607,
大田 (Ota),2012-04-11,15:01～16:00,0.0662,0.0571,0.0609,
大田 (Ota),2012-04-11,14:01～15:00,0.0628,0.0547,0.0588,
大田 (Ota),2012-04-11,13:01～14:00,0.0626,0.0536,0.0584,
大田 (Ota),2012-04-11,12:01～13:00,0.0647,0.0557,0.0592,
大田 (Ota),2012-04-11,11:01～12:00,0.0636,0.0575,0.0603,
